Regional Weather Roundup
Issued by NWS

Home | Current Version | Previous Version | Text Only | Print | Product List | Glossary Off
Versions: 1 2 3 4 5 6 7 8 9 10 11 12 13 14 15 16 17 18 19 20 21 22 23 24 25 26 27 28 29 30 31 32 33 34 35 36 37 38 39 40 41 42 43 44 45 46 47 48 49 50

000
ASUS43 KDMX 292307
RWRIA

WEATHER ROUNDUP FOR IOWA
NATIONAL WEATHER SERVICE DES MOINES IA
600 PM CDT FRI AUG 29 2014

NOTE: "FAIR" INDICATES FEW OR NO CLOUDS BELOW 12,000 FEET WITH NO
SIGNIFICANT WEATHER AND/OR OBSTRUCTIONS TO VISIBILITY.

* - THESE STATIONS ARE NOT NWS STATIONS...THUS NOT UNDER NWS
QUALITY CONTROL.  THEY ALSO DO NOT REPORT WEATHER SUCH
AS PRECIPITATION OR FOG.

IAZ001>003-012>014-020>022-031>034-043>046-300000-
   NORTHWEST IOWA

CITY           SKY/WX    TMP DP  RH WIND       PRES   REMARKS
CARROLL *      CLOUDY    72  70  94 CALM      29.78R
CHEROKEE *     CLOUDY    70  68  94 CALM      29.77F
DENISON *      LGT RAIN  72  70  94 VRB5      29.76S
LE MARS *      MOSUNNY   72  70  94 CALM      29.79R
ORANGE CITY *  MOSUNNY   73  66  78 CALM      29.79S
SHELDON *      CLOUDY    70  68  94 CALM      29.77F
SIOUX CITY     CLOUDY    74  68  81 CALM      29.77R
SPENCER        CLOUDY    72  66  81 W3        29.79R
STORM LAKE *   CLOUDY    70  70 100 CALM      29.79S
$$

IAZ055>058-069>071-079>083-090>094-300000-
   SOUTHWEST IOWA

CITY           SKY/WX    TMP DP  RH WIND       PRES   REMARKS
ATLANTIC *     MOSUNNY   75  70  83 S8        29.77F
AUDUBON *      MOSUNNY   75  70  83 S7        29.79F
CLARINDA *     CLOUDY    77  70  78 S6G12     29.81R
COUNCIL BLFS * DRIZZLE   66  66 100 S5        29.79S
CRESTON *      MOSUNNY   73  70  88 S9        29.80S
HARLAN  *      HVY RAIN  68  68 100 SW20      29.83R VSB 1/4
LAMONI         PTSUNNY   74  69  85 S8        29.80
RED OAK *      PTSUNNY   73  68  83 SW9       29.79S
SHENANDOAH *   CLOUDY    73  70  88 W5        29.80S
$$

IAZ047>049-059>061-072>074-084-300000-
   CENTRAL IOWA

CITY           SKY/WX    TMP DP  RH WIND       PRES   REMARKS
AMES           CLOUDY    72  69  90 S8        29.79R
ANKENY *       DRIZZLE   73  72  94 SE3       29.78F
CHARITON *     CLOUDY    70  68  94 S7        29.81S
DES MOINES     LGT RAIN  72  67  84 SW7       29.78F
GRINNELL*      DRIZZLE   70  66  88 S3        29.81F
KNOXVILLE *    CLOUDY    70  68  94 SW5       29.79R
MARSHALLTOWN   LGT RAIN  70  68  93 S7        29.78F FOG
PELLA *        CLOUDY    70  68  94 CALM      29.80F
PERRY *        CLOUDY    75  68  78 S6        29.78F
$$

IAZ004>006-015-016-023>025-035-036-300000-
   NORTH CENTRAL IOWA

CITY           SKY/WX    TMP DP  RH WIND       PRES   REMARKS
ALGONA *       PTSUNNY   75  70  83 SW5       29.78S
CLARION *      CLOUDY    75  70  83 SW5       29.77F
ESTHERVILLE    CLOUDY    71  66  84 CALM      29.78R
FORT DODGE *   CLOUDY    75  70  83 SW5       29.79S
MASON CITY     CLOUDY    78  70  76 SW8       29.78F HX  80
FOREST CITY *  MOSUNNY   72  64  78 W3        29.78F
IOWA FALLS *   RAIN      75  70  83 S17G25    29.78F
$$

IAZ007>011-017>019-026>030-037>042-050>054-066-300000-
   NORTHEAST IOWA

CITY           SKY/WX    TMP DP  RH WIND       PRES   REMARKS
CEDAR RAPIDS   CLOUDY    74  65  73 SW10G30   29.81R THUNDER
CHARLES CITY * HVY RAIN  73  70  88 SE9       29.78R
CLINTON *      SUNNY     82  72  69 S9        29.84S HX  87
DECORAH *      MOSUNNY   79  68  69 SW9G26    29.78R HX  81
DUBUQUE        MOSUNNY   80  70  71 S9        29.81F HX  83
MONTICELLO *   SUNNY     82  73  74 S9        29.79F HX  88
OELWEIN *      SUNNY     79  72  78 S8        29.79S HX  82
WATERLOO       RAIN      70  65  84 S7        29.77F
$$

IAZ064-065-067-068-078-300000-
   EAST CENTRAL IOWA

CITY           SKY/WX    TMP DP  RH WIND       PRES   REMARKS
DAVENPORT      MOSUNNY   82  70  66 S10       29.82F HX  86
IOWA CITY      CLOUDY    80  70  71 S7        29.81S HX  83
MT. PLEASANT * LGT RAIN  72  66  83 S6        29.83R
MUSCATINE *    SUNNY     82  72  69 S6        29.81R HX  87
QUAD CITIES    MOSUNNY   82  71  69 S6        29.81F HX  86
$$

IAZ062-063-075>077-085>089-095>099-300000-
   SOUTHEAST IOWA

CITY           SKY/WX    TMP DP  RH WIND       PRES   REMARKS
BURLINGTON     CLOUDY    80  68  66 SW10      29.82R HX  83
FAIRFIELD *    CLOUDY    73  68  83 CALM      29.82R
FORT MADISON * HVY RAIN  73  72  94 SW6G18    29.85R
KEOKUK *       LGT RAIN  73  72  94 CALM      29.82R
OSKALOOSA *    CLOUDY    70  68  94 CALM      29.81F
CENTERVILLE *  MOSUNNY   72  72 100 S3        29.82F
OTTUMWA        CLOUDY    71  69  93 CALM      29.80F
WASHINGTON *   LGT RAIN  77  72  83 W17       29.82R
$$

ABBREVIATIONS USED IN REMARKS
   TC - TEMPERATURES IN CELSIUS
  WCI - WIND CHILL INDEX
   HX - HEAT INDEX
  VSB - VISIBILITY
$$



USA.gov is the U.S. government's official web portal to all federal, state and local government web resources and services.